Regional Weather Roundup
Issued by NWS

Home | Current Version | Previous Version | Graphics & Text | Print | Product List | Glossary On
Versions: 1 2 3 4 5 6 7 8 9 10 11 12 13 14 15 16 17 18 19 20 21 22 23 24 25 26 27 28 29 30 31 32 33 34 35 36 37 38 39 40 41 42 43 44 45 46 47 48 49 50
000
ASUS43 KFSD 291810
RWRSD

WEATHER ROUNDUP FOR SOUTH DAKOTA
NATIONAL WEATHER SERVICE SIOUX FALLS SD
100 PM CDT THU SEP 29 2016

NOTE: "FAIR" INDICATES FEW OR NO CLOUDS BELOW 12,000 FEET WITH NO
SIGNIFICANT WEATHER AND/OR OBSTRUCTIONS TO VISIBILITY.


SDZ001>005-009-010-012>017-291900-
NORTHWEST AND NORTH CENTRAL SOUTH DAKOTA

CITY           SKY/WX    TMP DP  RH WIND       PRES   REMARKS
BUFFALO          N/A     73  42  32 SE21G28   30.17F
FAITH            N/A     70  42  36 SE23G29   30.28F
MOBRIDGE       FAIR      67  45  45 SE17      30.34F
$$

SDZ012>016-024>037-041>051-057-063-072>074-291900-
SOUTHWEST AND SOUTH CENTRAL SOUTH DAKOTA

CITY           SKY/WX    TMP DP  RH WIND       PRES   REMARKS
RAPID CTY ARPT FAIR      72  43  35 S17       30.28F
PIERRE         LGT RAIN  68  44  42 SE20G25   30.35F
CUSTER         FAIR      70  40  33 VRB7      30.37F
ELLSWORTH AFB  SUNNY     73  44  34 S20       30.26
PHILIP         FAIR      74  45  35 SE12G22   30.30F
PINE RIDGE     FAIR      76  44  32 SE16      30.31F
WINNER         FAIR      70  45  40 SE15      30.39F
$$

SDZ004>011-016>023-039-040-291900-
NORTHEAST SOUTH DAKOTA

CITY           SKY/WX    TMP DP  RH WIND       PRES   REMARKS
ABERDEEN       FAIR      65  46  50 SE9       30.43F
WATERTOWN      FAIR      62  46  55 VRB6      30.45F
BROOKINGS      FAIR      61  46  57 E5        30.45F
SISSETON         N/A     64  46  52 E7        30.46F
$$

SDZ017-020-022-023-036>040-048>070-291900-
SOUTHEAST SOUTH DAKOTA

CITY           SKY/WX    TMP DP  RH WIND       PRES   REMARKS
SIOUX FALLS    FAIR      64  48  56 SE5       30.45F
HURON          FAIR      64  48  56 SE10      30.44F
CHAMBERLAIN    FAIR      68  47  48 SE12G18   30.41F
MITCHELL       FAIR      65  47  52 VRB6      30.44F
YANKTON        FAIR      63  48  59 E6        30.43F
$$

ABBREVIATIONS USED IN REMARKS
   TC - TEMPERATURE IN CELSIUS
  WCI - WIND CHILL INDEX
   HX - HEAT INDEX
  VSB - VISIBILITY





USA.gov is the U.S. government's official web portal to all federal, state and local government web resources and services.